Weather History for KCNY - July, 2014

Change the Weather History Date:

Monday, July 28, 2014

  Actual Average Record
Temperature  
Mean Temperature 76 °F 81 °F  
Max Temperature 89 °F 96 °F 106 °F (1960)
Min Temperature 63 °F 66 °F 52 °F (1986)
Degree Days  
Heating Degree Days 0 0  
Month to date heating degree days 0 0  
Since 1 June heating degree days 0 17  
Since 1 July heating degree days 0 0  
Cooling Degree Days 11 16  
Month to date cooling degree days 508 427  
Year to date cooling degree days 893 746  
Since 1 June cooling degree days 794 682  
Growing Degree Days 26 (Base 50)    
Moisture  
Dew Point 57 °F    
Average Humidity 51    
Maximum Humidity 73    
Minimum Humidity 28    
Precipitation  
Precipitation 0.49 in 0.03 in 0.77 in (2013)
Month to date precipitation 0.79 0.74  
Year to date precipitation 3.17 4.44  
Sea Level Pressure  
Sea Level Pressure 30.10 in    
Wind  
Wind Speed 10 mph (WSW)    
Max Wind Speed 35 mph    
Max Gust Speed 40 mph    
Visibility 9 miles    
Events Rain , Thunderstorm    
T = Trace of Precipitation, MM = Missing Value Source: NWS Daily Summary

Daily Weather History Graph

Daily Weather History Graph

Search for Another Location

Airport or City:

Trip Planner

Search our weather history database for the weather conditions in past years. The results will help you decide how hot, cold, wet, or windy it might be!

Date:

Astronomy

Jul. 28, 2014 Rise Set
Actual Time 6:16 AM MDT 8:33 PM MDT
Civil Twilight 5:46 AM MDT 9:03 PM MDT
Nautical Twilight 5:10 AM MDT 9:40 PM MDT
Astronomical Twilight 4:29 AM MDT 10:20 PM MDT
Moon 7:59 AM MDT (7/28) 9:19 PM MDT (7/28)
Length of Visible Light 15h 16m
Length of Day
14h 16m
Waxing Crescent, 3% of the Moon is Illuminated
Jul 28
Waxing Crescent
Aug 3
First Quarter
Aug 10
Full
Aug 17
Last Quarter
Aug 25
New

Hourly Weather History & Observations

Time (MDT) Temp. Heat Index Dew Point Humidity Pressure Visibility Wind Dir Wind Speed Gust Speed Precip Events Conditions
12:03 AM 72.0 °F - 61.0 °F 68% 30.25 in 10.0 mi West 5.8 mph - 0.00 in Rain Light Rain
12:53 AM 73.0 °F - 63.0 °F 71% 30.04 in 10.0 mi East 4.6 mph - 0.00 in   Mostly Cloudy
1:53 AM 73.9 °F - 61.0 °F 64% 30.02 in 10.0 mi SSW 8.1 mph - N/A   Overcast
2:53 AM 70.0 °F - 63.0 °F 78% 30.03 in 10.0 mi SW 8.1 mph - 0.02 in Rain Light Rain
3:53 AM 72.0 °F - 57.9 °F 61% 30.04 in 10.0 mi South 11.5 mph - 0.00 in   Scattered Clouds
4:53 AM 70.0 °F - 60.1 °F 71% 30.04 in 10.0 mi Variable 3.5 mph - N/A   Mostly Cloudy
5:53 AM 69.1 °F - 59.0 °F 70% 30.06 in 10.0 mi NW 5.8 mph - N/A   Scattered Clouds
6:53 AM 70.0 °F - 61.0 °F 73% 30.06 in 10.0 mi NNE 4.6 mph - N/A   Clear
7:53 AM 75.2 °F - 59.0 °F 57% 30.26 in 10.0 mi NNE 4.6 mph - N/A   Clear
8:53 AM 79.0 °F - 55.0 °F 44% 30.07 in 10.0 mi Variable 3.5 mph - N/A   Clear
9:53 AM 82.0 °F 81.4 °F 55.0 °F 39% 30.08 in 10.0 mi Variable 4.6 mph - N/A   Clear
10:53 AM 82.0 °F 81.2 °F 53.1 °F 37% 30.08 in 10.0 mi ESE 8.1 mph - N/A   Clear
11:53 AM 84.0 °F 82.5 °F 53.1 °F 34% 30.07 in 10.0 mi Variable 5.8 mph - N/A   Partly Cloudy
12:53 PM 87.8 °F - 51.8 °F 29% 30.24 in 10.0 mi SSE 12.7 mph 19.6 mph N/A   Mostly Cloudy
1:53 PM 82.0 °F 81.4 °F 55.0 °F 39% 30.05 in 10.0 mi West 20.7 mph 27.6 mph N/A Thunderstorm Overcast
2:12 PM 80.1 °F 80.1 °F 55.0 °F 42% 30.22 in 10.0 mi West 20.7 mph - N/A   Mostly Cloudy
2:53 PM 82.4 °F 81.4 °F 53.6 °F 37% 30.21 in 10.0 mi West 12.7 mph - N/A   Clear
3:53 PM 87.8 °F - 51.8 °F 29% 30.18 in 10.0 mi NNW 8.1 mph - N/A   Clear
4:53 PM 87.1 °F - 51.1 °F 29% 29.97 in 10.0 mi Variable 4.6 mph - N/A   Clear
5:53 PM 88.0 °F - 50.0 °F 27% 29.95 in 10.0 mi SSE 10.4 mph - N/A   Clear
6:53 PM 86.0 °F - 50.0 °F 29% 29.95 in 10.0 mi SE 8.1 mph - N/A   Partly Cloudy
7:53 PM 84.9 °F - 50.0 °F 30% 29.94 in 10.0 mi SE 8.1 mph - N/A   Clear
8:53 PM 84.0 °F - 50.0 °F 31% 29.95 in 10.0 mi SE 6.9 mph - N/A   Overcast
9:27 PM 82.0 °F 81.2 °F 53.1 °F 37% 30.16 in 10.0 mi SW 13.8 mph - 0.00 in Rain , Thunderstorm Light Rain
9:46 PM 68.0 °F - 63.0 °F 84% 30.19 in 7.0 mi West 32.2 mph 39.1 mph 0.03 in Rain , Thunderstorm Rain
9:53 PM 66.0 °F - 63.0 °F 90% 30.04 in 5.0 mi West 26.5 mph 39.1 mph 0.04 in Rain , Thunderstorm Rain
10:01 PM 66.0 °F - 64.0 °F 93% 30.23 in 10.0 mi West 29.9 mph 38.0 mph 0.00 in Rain Light Rain
10:53 PM 64.0 °F - 61.0 °F 90% 30.13 in 2.5 mi WSW 18.4 mph 24.2 mph 0.13 in Rain , Thunderstorm Heavy Thunderstorms and Rain
11:14 PM 64.0 °F - 61.0 °F 90% 30.28 in 3.0 mi NW 13.8 mph - 0.21 in Rain Heavy Rain
11:53 PM 64.0 °F - 62.1 °F 93% 30.10 in 10.0 mi NNE 8.1 mph - 0.29 in Rain Light Rain